Wind_Speed
3 3 3 3 3 4 5 5 6 6 6 5 5 5 5 5 5 6 6 6 6 6 6 6 6 6 6 6 5 5 5 5 5 5 5 6 6 7 7 7 8 7 7
5 5 5 4 4 5 5 5 5 5 5 4 5 4 4 4 4 4 5 5 5 5 6 5 5 5 5 5 5 5 5 5 5 5 5 5 6 6 6 7 7 7 7
6 6 6 5 5 5 5 5 5 5 4 4 4 3 3 3 3 3 3 4 4 4 4 4 4 4 4 4 4 4 4 4 4 4 5 5 5 5 6 6 7 7 7
7 7 7 6 6 6 5 5 4 4 4 3 3 2 2 2 2 2 2 2 3 3 3 3 3 3 3 3 3 3 3 3 4 4 4 5 5 5 6 6 6 7 7
7 7 8 8 7 6 6 5 4 4 4 3 3 2 1 1 1 1 1 1 1 2 2 2 2 2 2 2 2 2 2 2 3 3 3 4 4 5 5 5 5 6 6
8 8 9 8 8 7 7 6 5 5 4 4 3 2 1 1 0 0 0 0 0 1 2 2 2 1 1 1 1 1 1 1 1 2 3 3 3 4 4 4 4 5 5
9 9 9 9 8 8 8 7 6 6 5 4 4 3 2 2 2 2 2 2 2 2 2 2 2 2 2 2 1 1 1 0 1 2 2 3 2 3 3 3 4 4 4
10 10 10 10 9 9 9 8 7 6 6 5 5 4 4 4 3 4 4 4 3 3 3 3 3 3 2 2 2 1 1 1 1 1 1 1 1 1 2 2 3 3 4
10 11 11 10 10 10 10 9 9 8 7 6 6 6 6 5 5 5 5 5 5 5 4 4 4 4 3 3 2 2 2 2 2 2 2 2 2 2 1 2 2 3 3
10 11 11 11 10 10 10 10 10 10 8 8 7 7 7 6 6 6 7 7 6 6 5 5 5 5 4 4 4 4 4 3 4 4 4 3 3 3 3 3 3 3 3
10 11 11 11 11 10 10 11 11 11 11 10 9 8 8 7 7 7 7 7 7 7 6 6 6 6 6 5 5 5 5 5 5 5 5 5 5 5 5 5 5 5 4
10 10 11 11 11 11 12 12 12 12 12 11 10 10 10 9 9 8 8 8 8 8 8 7 7 7 7 7 7 7 7 7 7 7 7 6 6 6 6 7 7 6 6
9 9 9 11 11 12 13 13 13 13 13 12 11 11 11 11 10 10 9 10 9 9 9 9 9 9 9 8 8 8 9 9 9 9 8 8 8 7 7 8 9 9 8
9 9 10 10 12 13 14 14 13 14 14 13 13 13 11 12 11 11 11 10 10 10 10 10 10 10 10 10 9 10 10 10 11 11 10 10 9 9 9 9 9 10 9
10 10 11 11 12 12 14 14 14 14 15 14 13 14 13 12 12 12 11 11 10 10 9 9 10 10 10 10 11 11 11 11 11 12 12 12 11 11 11 11 11 12 12
10 11 11 10 12 12 12 14 13 14 14 14 14 14 14 12 11 11 11 10 10 9 9 9 9 9 10 10 11 11 11 11 11 12 13 13 13 13 13 13 13 13 14
10 10 12 12 11 12 12 13 14 14 13 13 13 13 13 12 11 10 10 10 10 9 9 9 9 8 9 9 9 10 11 12 12 13 13 14 14 15 14 15 15 15 15
9 11 12 12 12 12 13 13 13 13 13 13 12 12 11 12 11 10 10 10 10 9 8 8 8 8 9 9 9 10 11 11 12 13 14 14 15 16 16 15 15 16 16
10 11 11 11 11 12 13 13 13 13 13 13 12 12 11 11 11 10 10 10 10 9 8 8 8 8 8 9 10 10 11 12 13 13 14 14 15 16 16 16 16 16 17
10 11 11 11 12 12 12 13 13 13 12 12 11 11 11 10 10 10 10 9 9 9 8 8 8 8 8 9 10 10 11 12 13 14 15 15 16 16 16 17 17 18 18
9 9 11 11 11 12 13 12 12 13 12 11 10 10 10 9 9 10 9 9 8 8 8 8 7 7 8 8 9 10 11 12 13 14 14 15 15 16 17 17 18 18 19
8 9 10 10 11 12 12 12 12 12 11 10 9 9 9 9 8 9 8 7 7 7 7 7 6 7 7 7 8 9 10 11 12 13 13 14 15 16 16 16 17 18 18
8 9 10 10 10 11 11 12 12 11 10 9 8 8 8 7 7 7 7 7 6 6 6 6 6 6 7 7 7 8 9 10 11 11 11 13 14 14 15 15 16 17 18
9 9 10 10 10 11 12 12 12 11 11 10 9 8 7 6 6 6 6 6 6 5 6 6 6 6 7 7 7 8 8 8 8 9 10 11 12 13 14 15 15 16 17
9 9 9 9 10 10 11 11 12 11 11 11 10 8 8 7 6 6 6 5 5 5 5 5 6 6 6 7 7 7 8 8 8 9 9 10 11 12 13 14 15 16 17
9 9 9 9 11 10 10 11 11 11 11 11 10 9 8 7 6 6 6 5 5 4 4 4 5 5 5 6 6 7 7 8 8 9 9 10 11 12 13 13 14 15 17
Wind_Direction
250 250 244 214 188 164 144 127 114 105 101 89 86 89 89 87 81 78 74 74 73 76 79 79 78 80 82 84 84 80 79 80 81 82 83 87 86 92 101 104 99 95 92
252 250 241 225 208 181 159 141 126 115 112 103 95 91 89 88 86 82 78 79 75 73 71 70 71 69 70 75 78 74 78 81 79 84 89 89 91 97 105 104 99 97 97
256 247 235 223 212 192 173 159 144 131 126 119 106 98 92 92 90 85 78 75 74 71 72 68 64 64 62 67 69 69 71 78 80 80 90 94 96 102 106 101 101 101 103
254 240 232 222 213 200 186 175 164 153 147 141 132 118 105 100 99 97 87 75 68 64 61 60 60 61 59 63 69 66 62 68 77 81 90 95 97 104 105 103 105 107 107
245 235 232 224 217 210 199 189 181 175 167 165 159 153 137 127 106 105 103 80 65 53 40 43 46 48 45 50 59 64 62 63 69 78 84 96 96 105 111 106 107 110 113
242 235 234 229 225 219 210 202 196 193 188 184 182 186 197 206 192 181 186 238 323 351 358 11 11 13 4 2 3 13 40 67 81 82 84 93 95 110 116 112 114 115 118
242 237 238 231 228 227 221 214 208 207 205 202 205 209 217 225 233 247 250 260 277 288 303 319 331 343 343 339 333 310 270 181 135 107 96 98 104 116 119 122 120 120 122
244 244 239 234 234 230 225 222 219 216 218 219 222 220 225 234 245 250 257 261 266 271 277 290 297 302 310 318 308 274 246 217 198 180 143 135 138 147 144 139 130 136 133
248 245 238 237 236 229 224 221 220 220 220 224 228 231 237 243 249 254 257 260 262 264 268 275 278 280 285 286 281 260 239 223 225 228 227 220 206 199 191 173 165 158 154
246 239 238 240 235 229 225 223 222 222 224 228 230 234 241 245 253 255 257 261 259 260 264 271 272 270 273 274 268 258 245 235 232 235 236 231 228 227 226 221 203 181 173
247 240 239 237 237 235 231 227 226 226 228 231 233 237 241 247 252 254 259 262 262 260 262 267 266 266 267 267 263 257 251 248 248 246 245 245 241 243 239 230 220 200 189
240 240 236 237 239 237 233 229 229 232 232 235 237 240 241 245 251 256 258 262 264 264 265 265 264 263 262 261 258 253 249 250 251 249 251 249 246 246 243 234 225 213 205
234 237 241 237 240 237 231 229 230 232 235 239 242 245 248 249 251 256 259 261 262 263 265 265 265 263 260 259 259 254 252 250 250 248 249 247 246 246 247 239 228 222 218
241 244 244 242 239 234 228 227 229 229 232 236 241 244 252 257 254 254 257 257 259 262 266 267 265 263 260 258 259 257 254 252 249 248 248 251 251 250 246 239 234 231 229
245 244 241 238 237 234 230 228 228 228 231 236 243 245 250 253 254 256 256 257 258 261 267 268 266 265 262 260 258 256 253 252 250 249 251 252 252 251 249 243 239 237 232
244 239 237 239 236 231 230 226 226 228 230 235 241 245 249 251 252 254 251 251 253 261 267 267 269 269 263 261 258 252 250 249 253 253 251 250 251 251 253 247 243 239 234
240 237 236 240 238 227 222 225 227 225 227 232 237 241 245 246 248 248 247 248 252 259 265 265 267 266 261 258 256 252 250 250 253 256 254 251 250 251 252 251 245 242 238
244 241 237 236 234 226 221 223 224 223 229 234 236 239 244 244 242 242 243 246 251 259 263 265 265 263 262 261 258 256 254 254 255 256 254 254 252 252 252 251 249 248 244
246 237 231 228 226 223 220 222 223 222 225 229 231 236 237 236 235 234 238 242 248 255 261 264 265 265 268 269 266 260 259 258 257 257 256 256 254 252 251 252 251 249 247
238 227 221 224 224 221 218 218 218 219 221 223 225 226 227 229 232 233 233 239 246 253 258 262 265 268 268 269 268 263 261 260 260 259 261 258 255 254 253 252 252 250 249
225 219 214 220 219 217 213 212 216 219 219 218 217 219 221 225 231 230 233 238 243 250 257 259 261 267 267 267 268 266 265 262 260 259 263 259 254 254 252 253 254 253 251
216 210 206 213 213 211 206 207 211 212 214 210 207 211 215 219 222 222 227 231 244 251 254 255 259 263 268 271 273 271 270 266 264 264 262 258 258 257 254 255 255 254 254
205 198 199 207 210 207 201 201 205 208 204 197 198 203 205 207 211 219 224 234 242 247 250 255 259 264 271 275 275 276 273 270 269 268 266 262 259 258 257 255 256 256 255
198 198 199 204 203 200 196 198 199 197 193 192 193 194 196 199 207 216 223 228 235 244 249 256 263 269 272 273 274 275 274 274 273 270 269 269 266 262 262 260 260 259 257
196 200 197 198 197 193 192 193 192 193 191 193 192 193 195 198 204 207 211 215 225 238 248 256 267 270 273 277 280 280 278 279 278 276 275 275 275 274 271 267 265 263 262
192 190 188 191 190 189 191 190 188 192 192 192 194 192 191 194 197 202 206 213 226 238 251 259 263 268 274 278 282 284 284 285 285 285 285 283 282 279 275 272 271 269 268
Height
5871 5872 5873 5873 5874 5874 5875 5876 5876 5877 5879 5880 5881 5882 5883 5884 5885 5885 5886 5886 5887 5887 5888 5888 5889 5890 5890 5890 5891 5891 5891 5892 5892 5892 5892 5892 5892 5892 5893 5893 5893 5893 5894
5871 5871 5872 5873 5874 5874 5875 5875 5876 5878 5879 5880 5881 5883 5884 5885 5886 5886 5887 5887 5888 5888 5889 5889 5890 5890 5891 5891 5892 5892 5893 5893 5893 5893 5893 5893 5893 5894 5894 5894 5895 5895 5895
5869 5870 5871 5872 5873 5874 5874 5875 5876 5877 5879 5880 5882 5883 5884 5885 5886 5887 5888 5888 5889 5889 5890 5890 5891 5891 5891 5892 5893 5893 5894 5894 5894 5894 5894 5894 5895 5895 5895 5896 5896 5896 5896
5868 5869 5870 5871 5872 5873 5874 5875 5876 5877 5879 5880 5882 5883 5884 5885 5886 5887 5888 5889 5889 5890 5890 5891 5891 5892 5892 5893 5893 5894 5894 5895 5895 5896 5896 5896 5896 5896 5896 5897 5897 5897 5897
5866 5868 5869 5870 5871 5872 5873 5875 5876 5877 5879 5880 5881 5883 5884 5885 5886 5887 5888 5889 5890 5890 5891 5891 5892 5892 5893 5893 5894 5894 5895 5895 5896 5896 5897 5897 5897 5897 5897 5897 5898 5898 5898
5865 5866 5868 5869 5870 5871 5872 5874 5875 5876 5878 5879 5881 5882 5883 5884 5885 5886 5887 5889 5889 5890 5891 5891 5892 5892 5893 5894 5894 5895 5895 5895 5896 5897 5897 5897 5898 5898 5898 5898 5898 5899 5899
5863 5865 5866 5867 5869 5870 5871 5872 5874 5875 5877 5878 5880 5881 5882 5884 5885 5886 5887 5888 5889 5890 5890 5891 5892 5892 5893 5894 5894 5895 5895 5896 5896 5897 5897 5898 5898 5899 5899 5899 5899 5899 5900
5862 5863 5864 5865 5867 5868 5869 5871 5873 5874 5876 5877 5879 5880 5881 5883 5884 5885 5886 5887 5888 5889 5890 5890 5891 5892 5892 5893 5894 5894 5895 5895 5896 5897 5897 5898 5898 5899 5899 5900 5900 5900 5900
5860 5861 5862 5864 5865 5866 5867 5869 5871 5873 5874 5876 5877 5878 5880 5881 5882 5884 5885 5886 5887 5888 5889 5889 5890 5891 5891 5892 5893 5893 5894 5895 5896 5896 5897 5897 5898 5899 5899 5900 5900 5900 5901
5857 5859 5860 5862 5863 5864 5866 5867 5869 5871 5872 5874 5876 5877 5878 5879 5881 5882 5883 5884 5885 5886 5887 5888 5889 5889 5890 5891 5891 5892 5893 5894 5895 5896 5896 5897 5898 5898 5899 5900 5900 5900 5901
5854 5856 5858 5860 5861 5862 5863 5865 5867 5869 5870 5872 5874 5875 5877 5878 5879 5880 5881 5883 5884 5885 5885 5886 5887 5888 5889 5889 5890 5891 5892 5893 5894 5894 5895 5896 5897 5897 5898 5899 5900 5900 5901
5852 5854 5855 5857 5858 5860 5861 5863 5865 5866 5868 5870 5872 5873 5875 5876 5877 5879 5880 5881 5882 5883 5884 5884 5885 5886 5887 5888 5888 5889 5890 5891 5892 5893 5894 5895 5895 5896 5897 5897 5898 5900 5900
5850 5852 5853 5854 5855 5857 5859 5861 5862 5864 5866 5868 5869 5871 5873 5874 5875 5877 5878 5879 5880 5881 5882 5882 5883 5884 5885 5886 5887 5887 5888 5889 5890 5891 5892 5893 5894 5895 5895 5896 5897 5898 5899
5848 5849 5851 5852 5853 5854 5856 5858 5860 5862 5864 5865 5867 5869 5870 5872 5873 5874 5876 5877 5878 5879 5879 5880 5881 5882 5883 5884 5885 5885 5886 5887 5888 5889 5890 5892 5892 5893 5894 5895 5895 5897 5898
5845 5847 5848 5849 5851 5852 5854 5856 5858 5859 5861 5863 5865 5866 5868 5870 5871 5872 5874 5875 5876 5876 5877 5878 5878 5879 5880 5881 5882 5883 5884 5885 5886 5887 5888 5889 5890 5891 5892 5893 5894 5895 5896
5843 5845 5846 5847 5849 5850 5852 5853 5855 5857 5859 5861 5862 5864 5865 5867 5869 5870 5871 5872 5874 5874 5875 5875 5876 5877 5878 5879 5879 5880 5881 5882 5883 5884 5885 5886 5887 5888 5889 5890 5891 5892 5894
5841 5842 5843 5845 5846 5847 5849 5851 5853 5854 5856 5858 5860 5861 5863 5865 5866 5868 5869 5870 5871 5872 5873 5873 5874 5874 5875 5876 5877 5878 5878 5879 5880 5881 5882 5883 5884 5885 5886 5887 5888 5889 5891
5838 5839 5840 5842 5843 5845 5847 5849 5850 5852 5854 5856 5857 5859 5861 5862 5864 5865 5867 5868 5869 5870 5870 5871 5871 5872 5873 5874 5874 5875 5876 5876 5877 5878 5879 5880 5881 5882 5883 5884 5885 5886 5887
5835 5836 5838 5839 5841 5843 5845 5847 5848 5850 5852 5853 5855 5857 5858 5860 5862 5863 5865 5866 5867 5868 5868 5869 5869 5870 5871 5871 5872 5872 5873 5874 5874 5875 5876 5877 5877 5878 5879 5880 5881 5883 5884
5832 5833 5835 5837 5838 5840 5842 5844 5846 5848 5850 5851 5853 5855 5857 5858 5860 5861 5863 5864 5865 5866 5866 5867 5867 5868 5869 5869 5869 5870 5871 5871 5871 5872 5873 5873 5874 5875 5876 5877 5878 5879 5880
5830 5831 5833 5835 5837 5839 5841 5843 5845 5847 5849 5850 5851 5853 5855 5856 5857 5859 5861 5862 5863 5864 5865 5865 5866 5866 5867 5867 5867 5868 5868 5868 5869 5870 5870 5870 5871 5872 5872 5873 5874 5875 5876
5828 5830 5831 5833 5835 5837 5839 5841 5844 5846 5847 5848 5850 5851 5853 5854 5856 5857 5859 5860 5861 5862 5863 5863 5864 5864 5864 5865 5865 5865 5866 5867 5866 5866 5867 5867 5868 5868 5868 5869 5870 5871 5872
5827 5828 5830 5831 5833 5835 5837 5840 5842 5844 5846 5847 5849 5850 5852 5853 5855 5856 5857 5859 5860 5860 5861 5862 5862 5862 5863 5863 5863 5864 5864 5864 5863 5864 5864 5864 5864 5865 5865 5865 5866 5867 5868
5826 5828 5829 5831 5832 5834 5836 5838 5840 5843 5845 5846 5848 5849 5851 5852 5853 5855 5856 5857 5858 5859 5859 5860 5860 5860 5861 5861 5861 5861 5862 5861 5861 5861 5861 5861 5861 5862 5862 5862 5862 5863 5863
5825 5827 5828 5830 5832 5833 5835 5837 5839 5841 5843 5845 5847 5848 5850 5851 5852 5853 5855 5856 5857 5857 5858 5858 5858 5859 5859 5859 5859 5859 5859 5859 5859 5859 5859 5859 5858 5858 5858 5858 5859 5859 5859
5825 5826 5827 5829 5831 5832 5834 5836 5838 5840 5842 5844 5845 5847 5848 5850 5851 5853 5854 5855 5855 5856 5856 5856 5857 5857 5857 5857 5857 5857 5857 5857 5857 5857 5856 5856 5856 5856 5855 5855 5855 5855 5855